Regional Weather Roundup
Issued by NWS

Home | Current Version | Previous Version | Text Only | Print | Product List | Glossary Off
Versions: 1 2 3 4 5 6 7 8 9 10 11 12 13 14 15 16 17 18 19 20 21 22 23 24 25 26 27 28 29 30 31 32 33 34 35 36 37 38 39 40 41 42 43 44 45 46 47 48 49 50

000
ASUS43 KOAX 200410
RWRNE

WEATHER ROUNDUP FOR NEBRASKA
NATIONAL WEATHER SERVICE OMAHA NE
1100 PM CDT TUE SEP 19 2017

NOTES: SATELLITE DATA IS BEING USED TO AUGMENT CLOUD COVER ABOVE
       12000 FEET.
       "FAIR" INDICATES FEW OR NO CLOUDS BELOW 12,000 FEET WITH NO
       SIGNIFICANT WEATHER AND/OR OBSTRUCTIONS TO VISIBILITY.


NEZ001>004-019>022-054>056-200500-
NEBRASKA PANHANDLE

CITY           SKY/WX    TMP DP  RH WIND       PRES   REMARKS
SCOTTSBLUFF    MOCLDY    52  36  54 NW9       29.79R
ALLIANCE       CLOUDY    52  33  48 W10       29.79R
CHADRON        CLOUDY    58  29  33 NW12      29.76F
GORDON         MOCLDY    58  38  46 W15       29.76R
KIMBALL        CLOUDY    51  31  45 NW21G28   29.82F
SIDNEY         CLOUDY    52  32  46 NW18      29.80F
$$

NEZ057>060-069>072-079>082-200500-
SOUTHWEST NEBRASKA

CITY           SKY/WX    TMP DP  RH WIND       PRES   REMARKS
NORTH PLATTE   PTCLDY    62  40  44 NW13      29.69R
IMPERIAL       CLEAR     60  29  30 N23G36    29.74R
LEXINGTON      CLOUDY    67  44  43 NW13G20   29.64R
MCCOOK         CLOUDY    66  39  37 NW17G29   29.69R
OGALLALA       CLEAR     60  31  33 NW13G20   29.74R
$$

NEZ005>010-023>029-035>040-094-200500-
NORTH CENTRAL NEBRASKA

CITY           SKY/WX    TMP DP  RH WIND       PRES   REMARKS
VALENTINE      CLEAR     64  42  44 NW12      29.64F
AINSWORTH      CLEAR     63  50  63 NW15      29.64S
BROKEN BOW     CLOUDY    68  46  45 N26G36    29.61R
O`NEILL        PTCLDY    65  52  63 NW22G43   29.61R
ORD            CLEAR     68  47  46 NW24G38   29.57R
THEDFORD       CLEAR     62  46  55 NW10      29.67R
$$

NEZ041-046>049-061>064-073>077-083>087-200500-
SOUTH CENTRAL NEBRASKA

CITY           SKY/WX    TMP DP  RH WIND       PRES   REMARKS
GRAND ISLAND   CLOUDY    77  65  66 S15       29.51S
AURORA         CLOUDY    79  65  60 S14G23    29.53S
HASTINGS       CLOUDY    80  58  46 S12       29.54R
HEBRON         CLOUDY    82  67  59 S14G21    29.57S
HOLDREGE       CLOUDY    68  43  40 NW13G21   29.60R
KEARNEY        CLOUDY    70  48  46 NW13G23   29.60R
YORK           CLOUDY    81  68  65 S16G23    29.54F
$$

NEZ011>018-030>034-042>045-200500-
NORTHEAST NEBRASKA

CITY           SKY/WX    TMP DP  RH WIND       PRES   REMARKS
NORFOLK        CLEAR     78  69  73 SE24G35   29.50R
ALBION         CLOUDY    78  69  73 S12G17    29.50R
BLAIR          CLOUDY    80  69  69 S22G37    29.60S
COLUMBUS       CLOUDY    79  70  74 SE17G25   29.53R
FREMONT        CLOUDY    79  68  69 SE22      29.57S
TEKAMAH        CLOUDY    79  68  69 SE15G28   29.56F
WAYNE          CLEAR     77  72  84 S24G32    29.51S
$$

NEZ050>053-065>068-078-088>093-200500-
SOUTHEAST NEBRASKA

CITY           SKY/WX    TMP DP  RH WIND       PRES   REMARKS
LINCOLN        CLOUDY    81  71  71 S22G30    29.58R
OMAHA EPPLEY   CLOUDY    80  67  64 SE23G33   29.61S
BEATRICE       CLOUDY    81  73  75 S21G28    29.60S
FALLS CITY     CLOUDY    79  68  69 S17       29.66R
NEBRASKA CITY  CLOUDY    78  71  77 S21G26    29.64S
PLATTSMOUTH    MOCLDY    78  69  74 SE17G24   29.63S
$$

NEZ044-045-051>053-067-200500-
OMAHA AREA

CITY           SKY/WX    TMP DP  RH WIND       PRES   REMARKS
OMAHA EPPLEY   CLOUDY    80  67  64 SE23G33   29.61S
BLAIR          CLOUDY    80  69  69 S22G37    29.60S
FREMONT        CLOUDY    79  68  69 SE22      29.57S
MILLARD        CLOUDY    80  70  71 SE15G22   29.60S
OFFUTT AFB     CLOUDY    79  68  68 SE22G29   29.61R
PLATTSMOUTH    MOCLDY    78  69  74 SE17G24   29.63S
WAHOO          FAIR      79  69  71 SE20G29   29.58R
$$




USA.gov is the U.S. government's official web portal to all federal, state and local government web resources and services.